www.pogodaiklimat.ru

Погода и климат >> Архив погоды >> Австралия >> Port Keats Aero


ПОГОДА в Port Keats Aero

  • Прогноз погоды в Port Keats Aero
  • Монитор погоды в Port Keats Aero
  • Климат города

АРХИВ ПОГОДЫ в Port Keats Aero

Время (UTC), дата Ветер
(напр.,м/с)
 
Видим.   Явления Облачность Т
(С)
Тd
(С)
f
(%)
Тe
(С)
Тes
(С)
Комфортность P
(гПа)
Po
(гПа)
Тmin
(С)
Tmax
(С)
R
(мм)
R24
(мм)
S
(см)
23 9.07 ЮВ 3 н/о н/о +22.0 +0.5 24 +21 +21 комфорт 1015.2 1011.8
00 10.07 ЮВ 6 н/о н/о +24.1 +0.4 21 +23 +23 комфорт 1015.4 1012.0
02 10.07 В 5 н/о н/о +28.2 +3.1 20 +26 +26 жарко 1014.7 1011.3
03 10.07 ЮВ 5 н/о н/о +29.0 +3.8 20 +27 +27 жарко 1013.7 1010.3
05 10.07 В 5 н/о н/о +30.1 +6.1 22 +29 +29 жарко 1011.6 1008.3
06 10.07 ЮВ 4 н/о н/о +30.2 +6.8 23 +29 +29 жарко 1011.2 1007.9
08 10.07 ЮВ 3 н/о н/о +30.0 +7.2 24 +29 +29 жарко 1011.4 1008.1
09 10.07 ЮЗ 3 н/о н/о +27.1 +8.0 30 +27 +27 жарко 1012.1 1008.8
11 10.07 Ю 3 н/о н/о +23.4 +9.0 40 +25 +25 комфорт 1013.9 1010.5
12 10.07 Ю 3 н/о н/о +23.9 +8.3 37 +24 +24 комфорт 1014.3 1010.9
14 10.07 Ю 3 н/о н/о +21.7 +7.9 41 +23 +23 комфорт 1014.8 1011.4
15 10.07 Ю 3 н/о н/о +22.4 +6.2 35 +23 +23 комфорт 1014.8 1011.4
17 10.07 Ю 3 н/о н/о +18.9 +5.7 42 +20 +20 1014.5 1011.1
18 10.07 Ю 3 н/о н/о +19.6 +4.9 38 +21 +21 комфорт 1014.0 1010.6
20 10.07 Ю 3 н/о н/о +19.3 +4.3 37 +20 +20 1014.3 1010.9
21 10.07 Ю 3 н/о н/о +18.8 +3.4 36 +19 +19 1014.6 1011.2
23 10.07 ЮВ 5 н/о н/о +22.0 +1.1 25 +22 +22 комфорт 1015.6 1012.2
00 11.07 ЮВ 5 н/о н/о +23.4 +1.1 23 +22 +22 комфорт 1016.0 1012.6
02 11.07 В 5 н/о н/о +27.4 -0.6 16 +25 +25 комфорт 1015.1 1011.7
03 11.07 В 5 н/о н/о +28.4 +0.2 16 +26 +26 жарко 1014.2 1010.8
05 11.07 Ю 5 н/о н/о +30.5 0.0 14 +28 +28 жарко 1012.6 1009.2
06 11.07 Ю 6 н/о н/о +30.4 -0.1 14 +27 +27 жарко 1012.1 1008.8
08 11.07 Ю 4 н/о н/о +29.0 -0.2 15 +26 +26 жарко 1011.9 1008.6
09 11.07 Ю 2 н/о н/о +26.8 +1.3 19 +25 +25 комфорт 1012.4 1009.0
11 11.07 Ю 3 н/о н/о +22.5 +5.4 33 +23 +23 комфорт 1013.6 1010.2
12 11.07 Ю 2 н/о н/о +20.4 +6.4 40 +22 +22 комфорт 1014.2 1010.8
14 11.07 Ю 2 н/о н/о +19.1 +5.6 41 +20 +20 1014.3 1010.9
15 11.07 Ю 2 н/о н/о +18.2 +4.7 41 +19 +19 1014.2 1010.8
17 11.07 Ю 2 н/о н/о +17.5 +3.8 40 +18 +18 1014.0 1010.6
18 11.07 Ю 2 н/о н/о +16.2 +3.3 42 +17 +17 1013.5 1010.1
20 11.07 Ю 2 н/о н/о +17.4 +2.6 37 +18 +18 1013.7 1010.3
21 11.07 Ю 4 н/о н/о +19.2 +2.1 32 +19 +19 1014.0 1010.6
23 11.07 ЮВ 6 н/о н/о +21.1 -0.8 23 +21 +21 комфорт 1015.2 1011.8
00 12.07 ЮВ 5 н/о н/о +23.0 -1.8 19 +22 +22 комфорт 1015.6 1012.2
02 12.07 ЮВ 6 н/о н/о +27.6 -2.3 14 +25 +25 комфорт 1014.9 1011.5
03 12.07 В 3 н/о н/о +28.4 -1.6 14 +26 +26 жарко 1013.9 1010.5
05 12.07 В 3 н/о н/о +29.5 -1.8 13 +26 +26 жарко 1011.7 1008.4
06 12.07 ЮВ 4 н/о н/о +30.4 -2.2 12 +27 +27 жарко 1010.9 1007.6
08 12.07 Ю 4 н/о н/о +28.8 -0.4 15 +26 +26 жарко 1010.7 1007.4
09 12.07 Ю 3 н/о н/о +26.0 +2.7 22 +25 +25 комфорт 1011.0 1007.7
11 12.07 Ю 3 н/о н/о +22.4 +3.0 28 +22 +22 комфорт 1012.5 1009.1
12 12.07 Ю 3 н/о н/о +21.2 +2.0 28 +21 +21 комфорт 1013.0 1009.6
14 12.07 Ю 3 н/о н/о +21.5 +2.7 29 +21 +21 комфорт 1013.3 1009.9
15 12.07 Ю 2 н/о н/о +18.4 +3.1 36 +19 +19 1013.3 1009.9
17 12.07 Ю 2 н/о н/о +15.2 +4.0 47 +15 +15 1013.4 1010.0
18 12.07 Ю 3 н/о н/о +16.4 +2.8 40 +16 +16 1013.0 1009.6
20 12.07 Ю 3 н/о н/о +20.0 -1.2 24 +20 +20 1012.8 1009.4
21 12.07 Ю 3 н/о н/о +20.0 -0.6 25 +20 +20 1012.8 1009.4
23 12.07 Ю 4 н/о н/о +21.8 -0.8 22 +21 +21 комфорт 1013.8 1010.4
00 13.07 ЮВ 5 н/о н/о +23.5 +1.2 23 +23 +23 комфорт 1014.1 1010.7
02 13.07 В 5 н/о н/о +27.0 +4.1 23 +26 +26 жарко 1013.9 1010.5
03 13.07 ЮВ 5 н/о н/о +27.7 +4.1 22 +26 +26 жарко 1013.2 1009.8
05 13.07 В 3 н/о н/о +30.1 +4.0 19 +28 +28 жарко 1011.3 1008.0
06 13.07 В 3 н/о н/о +30.3 +4.1 19 +28 +28 жарко 1010.5 1007.2
08 13.07 З 3 н/о н/о +29.2 +6.0 23 +28 +28 жарко 1010.7 1007.4
09 13.07 ЮЗ 1 н/о н/о +26.4 +5.4 26 +26 +26 жарко 1011.2 1007.9
11 13.07 ЮЗ 1 н/о н/о +19.8 +7.2 44 +22 +22 комфорт 1012.5 1009.1
12 13.07 штиль 0 н/о н/о +17.4 +8.0 54 +17 +17 1012.9 1009.5
14 13.07 Ю 2 н/о н/о +17.7 +6.9 49 +18 +18 1013.4 1010.0
15 13.07 Ю 1 н/о н/о +15.9 +7.9 59 +17 +17 1013.4 1010.0
17 13.07 Ю 3 н/о н/о +19.2 +6.3 43 +20 +20 1012.7 1009.3
18 13.07 Ю 3 н/о н/о +17.9 +4.5 41 +18 +18 1012.5 1009.1
20 13.07 Ю 4 н/о н/о +21.2 +1.0 26 +21 +21 комфорт 1012.3 1008.9
21 13.07 ЮВ 4 н/о н/о +21.0 +0.2 25 +21 +21 комфорт 1012.6 1009.2
23 13.07 Ю 3 н/о н/о +20.9 +2.2 29 +22 +22 комфорт 1013.6 1010.2
00 14.07 ЮВ 6 н/о н/о +23.8 +0.2 21 +23 +23 комфорт 1014.0 1010.6
02 14.07 ЮВ 5 н/о н/о +28.0 +5.0 23 +27 +27 жарко 1013.4 1010.0
03 14.07 В 4 н/о н/о +29.6 +6.3 23 +28 +28 жарко 1012.5 1009.1
05 14.07 СВ 3 н/о н/о +31.1 +5.5 20 +29 +29 жарко 1010.1 1006.8
06 14.07 СВ 1 н/о н/о +31.5 +5.8 20 +30 +30 жарко 1009.3 1006.0
08 14.07 СЗ 3 н/о н/о +29.7 +8.7 27 +29 +29 жарко 1009.3 1006.0
09 14.07 ЮЗ 2 н/о н/о +26.7 +8.2 31 +27 +27 жарко 1009.8 1006.5
11 14.07 ЮЗ 3 н/о н/о +23.3 +9.7 42 +25 +25 комфорт 1011.5 1008.2
12 14.07 ЮЗ 2 н/о н/о +21.2 +10.1 49 +23 +23 комфорт 1012.1 1008.8
14 14.07 В 1 н/о н/о +18.4 +11.2 63 +20 +20 1012.7 1009.3
15 14.07 ЮЗ 2 н/о н/о +16.6 +10.9 69 +17 +17 1012.0 1008.7
17 14.07 Ю 1 н/о н/о +17.5 +9.9 61 +19 +19 1011.1 1007.8
18 14.07 ЮЗ 1 н/о н/о +15.9 +9.8 67 +17 +17 1010.9 1007.6
20 14.07 Ю 2 н/о н/о +18.0 +10.9 63 +19 +19 1011.0 1007.7
21 14.07 Ю 2 н/о н/о +14.5 +9.7 73 +14 +14 1011.3 1008.0
23 14.07 Ю 3 н/о н/о +22.4 +5.4 33 +23 +23 комфорт 1013.0 1009.6
00 15.07 ЮВ 4 н/о н/о +25.1 +3.7 25 +24 +24 комфорт 1013.7 1010.3
02 15.07 В 4 н/о н/о +29.4 +4.1 20 +28 +28 жарко 1013.1 1009.7
03 15.07 ЮВ 3 н/о н/о +30.1 +4.0 19 +28 +28 жарко 1012.4 1009.0
05 15.07 Ю 2 н/о н/о +31.3 +5.7 20 +29 +29 жарко 1010.8 1007.5
06 15.07 З 4 н/о н/о +30.4 +7.0 23 +29 +29 жарко 1010.3 1007.0
08 15.07 ЮЗ 3 н/о н/о +29.3 +4.7 21 +28 +28 жарко 1010.6 1007.3
09 15.07 ЮЗ 2 н/о н/о +26.1 +6.2 28 +26 +26 жарко 1010.9 1007.6
11 15.07 ЮЗ 2 н/о н/о +19.6 +8.9 50 +21 +21 комфорт 1011.9 1008.6
12 15.07 штиль 0 н/о н/о +18.6 +8.8 53 +19 +19 1012.5 1009.1
14 15.07 ЮЗ 2 н/о н/о +16.3 +9.5 64 +16 +16 1012.5 1009.1
15 15.07 Ю 2 н/о н/о +17.5 +10.4 63 +18 +18 1012.5 1009.1
17 15.07 Ю 3 н/о н/о +17.0 +10.4 65 +17 +17 1012.0 1008.7
18 15.07 В 1 н/о н/о +16.9 +10.7 67 +18 +18 1012.0 1008.7
20 15.07 штиль 0 н/о н/о +13.3 +10.1 81 +13 +13 1012.3 1008.9
21 15.07 штиль 0 н/о н/о +13.1 +9.9 81 +13 +13 1012.6 1009.2
23 15.07 ЮЗ 2 н/о н/о +16.5 +10.8 69 +17 +17 1014.0 1010.6
00 16.07 В 3 н/о н/о +25.8 +3.7 24 +25 +25 комфорт 1014.6 1011.2
02 16.07 ЮВ 4 н/о н/о +29.4 +2.6 18 +27 +27 жарко 1014.0 1010.6
03 16.07 ЮВ 5 н/о н/о +30.4 +0.9 15 +28 +28 жарко 1012.9 1009.5
05 16.07 В 3 н/о н/о +31.7 -1.2 12 +28 +28 жарко 1010.4 1007.1
06 16.07 З 4 н/о н/о +30.0 +8.4 26 +29 +29 жарко 1009.8 1006.5
08 16.07 З 3 н/о н/о +27.7 +12.1 38 +29 +29 жарко 1009.9 1006.6
09 16.07 З 3 н/о н/о +24.7 +13.0 48 +27 +27 жарко 1010.3 1007.0
11 16.07 ЮЗ 2 н/о н/о +20.2 +14.3 69 +23 +23 комфорт 1011.7 1008.4
12 16.07 З 2 н/о н/о +20.4 +16.0 76 +24 +24 комфорт 1012.4 1009.0
14 16.07 Ю 2 н/о н/о +16.2 +13.5 84 +17 +17 1012.7 1009.3
15 16.07 ЮЗ 3 н/о н/о +18.6 +12.8 69 +19 +19 1012.5 1009.1
17 16.07 Ю 2 н/о н/о +17.3 +13.0 76 +18 +18 1012.3 1008.9
18 16.07 Ю 2 н/о н/о +15.4 +11.8 79 +15 +15 1012.1 1008.8
20 16.07 штиль 0 н/о н/о +15.0 +9.1 68 +15 +15 1012.3 1008.9
21 16.07 ЮВ 2 н/о н/о +14.2 +7.5 64 +14 +14 1012.7 1009.3

 

Местоположение метеостанции Port Keats Aero (Северная территория, Австралия): широта -14.25 долгота 129.53 высота над уровнем моря 29 м.

В архиве по умолчанию представлена погода в Port Keats Aero за последнюю неделю. Архивные данные за месяц целиком и за предыдущие месяцы, начиная с января 2011 года, Вы можете получить, выбрав интересующий диапазон дат из раскрывающегося списка и нажав кнопку "Ввод!".


*Определитесь, кто Вы:
робот инопланетянин человек

Внимание! Время в таблицах - всемирное. Для получения местного времени необходимо прибавить поправку, которая в Port Keats Aero равна 9.5 ч.

Смотрите также архив погоды в соседних городах и на ближайших метеорологических станциях:

Погода в Manbulloo Csiro (Северная территория, Австралия) (157 км)
Погода в Cape Don Lighthouse (Северная территория, Австралия) (184 км)
Погода в Kununurra (Западная Австралия, Австралия) (192 км)
Погода в Dum In Mirrie (Северная территория, Австралия) (202 км)
Погода в Wyndham Aero (Западная Австралия, Австралия) (203 км)
Погода в Batchelor Fld (Северная территория, Австралия) (209 км)
Погода в Darwin (Северная территория, Австралия) (251 км)
Погода в Middle Point Aws (Северная территория, Австралия) (265 км)
Погода в Bathurst Island (Северная территория, Австралия) (280 км)
Погода в Victoria River Downs (Северная территория, Австралия) (288 км)

Пояснения к столбцам:

Ветер - указаны скорость ветра в м/с - средняя за 10 мин, порывы в срок и между сроками (в фигурных скобках) и направление, откуда дует ветер: С - северный, СВ - северо-восточный, В - восточный, ЮВ - юго-восточный, Ю - южный, ЮЗ - юго-западный, З - западный, СЗ - северо-западный.
Видимость - горизонтальная дальность видимости в метрах или километрах. При видимости от 1 до 10 км при отсутствии осадков обычно наблюдается дымка, при ухудшении видимости до 1 км и менее - туман. В сухую погоду видимость может ухудшаться дымом, пылью или мглою.
Явления - указаны атмосферные явления, наблюдавшиеся в срок или в последний час перед сроком; фигурными скобками обозначены явления, наблюдавшиеся между сроками (за 1-3 часа до срока); квадратными скобками обозначены град или гололедные отложения с указанием их диаметра в мм.
Облачность - указаны через наклонную черту общая и нижняя облачность в баллах и высота нижней границы облаков в метрах; квадратными скобками обозначены формы облаков: Ci - перистые, Cs - перисто-слоистые, Cc - перисто-кучевые, Ac - высококучевые, As - высокослоистые, Sc - слоисто-кучевые, Ns - слоисто-дождевые, Cu - кучевые, Cb - кучево-дождевые. Подробнее классификацию облаков см. в Атласе облаков (PDF).
T - Температура воздуха - температура, измеренная на высоте 2 м над землей.
Td - Температура точки росы - температура, при понижении до которой содержащийся в воздухе водяной пар достигнет насыщения.
f - Относительная влажность воздуха - влажноcть воздуха, измеренная на высоте 2 м над землей.
Te - Эффективная температура - температура, которую ощущает одетый по сезону человек в тени. Характеристика душности погоды. При расчете учитывается влияние влажности воздуха и скорости ветра на теплоощущения человека.
Tes - Эффективная температура на солнце - температура, которую ощущает человек, с поправкой на солнечный нагрев. Характеристика знойности погоды. Зависит от высоты солнца над горизонтом, облачности и скорости ветра. Ночью, в пасмурную погоду, а также при ветре 12 м/с и более поправка равна нулю.
P - Атмосферное давление - приведенное к уровню моря атмосферное давление.
Po - Атмосферное давление - измеренное на уровне метеостанции атмосферное давление.
Tmin - Минимальная температура - минимум температуры воздуха на высоте 2 м над землей.
Tmax - Максимальная температура - максимум температуры воздуха на высоте 2 м над землей.
R - Количество осадков - Количество выпавших осадков за период времени, мм. При наведении курсора мыши на число - период времени, за который выпало указанное количество осадков.
R24 - Количество осадков - Количество выпавших осадков за 24 часа, мм.
S - Снежный покров - Высота снежного покрова, см. При наведении курсора мыши на число - состояние снежного покрова и степень покрытия местности в баллах.